Zurück zum Katalog

STARLINK-34037

AktivKommunikationVLEO
NORAD 63847·PAYLOAD·🇺🇸 United States

Gestartet May 7, 2025 von Cape Canaveral Space Force Station

Loading…

Nächste Überflüge (nächste 24 Stunden)

TLE

AktuellSource: CelesTrak SupGP

Epoche: Sep 14, 2026, 21:30 UTC

1 63847C 25093M   26257.89631944  .00002796  00000+0  10131-3 0  2572
2 63847  43.0032  89.2591 0001394 275.2984 318.6533 15.27568357    19

Verfolge STARLINK-34037 in Echtzeit mit AllMySat

Download on the App Store